Location: Axtheid
(49.6213°N, 11.8205°E)
Time: 21:00:31
(UTC+00:00)

Meteor 2-8 Rocket - Pass Details

Date: 24 January 2021
Orbit: 937 x 957 km, 82.5° (Epoch: 02 March)

Event Time Altitude Azimuth Distance (km) Brightness Sun altitude
Rises 17:36:25 0° 350° (N) 3,617 7.5 -16.2°
Reaches altitude 10° 17:38:56 10° 353° (N) 2,671 6.8 -16.6°
Maximum altitude 17:45:02 75° 78° (ENE) 983 4.3 -17.6°
Drops below altitude 10° 17:51:08 10° 164° (SSE) 2,666 6.7 -18.6°
Sets 17:53:38 0° 167° (SSE) 3,610 7.4 -19.0°
